Location: Lally
(47.0345°N, 4.4139°E)
Time: 02:03:49
(UTC+00:00)

Daily predictions for brighter satellites

Satellite Brightness Start Highest point End
(mag) Time Altitude Azimuth Time Altitude Azimuth Time Altitude Azimuth
ATLAS 2AS CENTAUR R/B 4.2 02:52:20 36° NE 02:52:20 36° NE 02:56:33 10° NE
Lacrosse 5 4.3 03:33:29 17° NE 03:33:29 17° NE 03:34:42 10° NE
ATLAS 3B R/B 3.9 03:36:31 34° SSE 03:36:31 34° SSE 03:40:17 10° SSE
CZ-4C R/B 3.6 03:47:08 30° NNE 03:47:08 30° NNE 03:50:19 10° NE
BREEZE-M DEB (TANK) 4.5 03:53:02 69° W 03:54:30 86° NNW 04:28:45 10° E
COSMO-SKYMED 1 4.5 03:56:11 10° ESE 03:59:49 27° ENE 04:00:08 27° ENE
Cosmos 1844 Rocket 3.7 04:02:42 39° NNE 04:02:42 39° NNE 04:06:11 10° NNE
COSMOS 2406 4.4 04:02:25 31° NNE 04:04:05 37° NE 04:09:26 10° ESE
USA 305 4.2 04:16:56 38° E 04:16:56 38° E 04:19:47 10° ESE
ATLAS 5 CENTAUR R/B 2.8 04:17:17 36° ESE 04:17:17 36° ESE 04:21:10 10° NE
Nadezhda 3 Rocket 4.4 04:15:54 10° N 04:22:07 61° ENE 04:28:14 10° SSE
USA 306 3.8 04:25:27 47° E 04:25:27 47° E 04:28:40 10° ESE
Cosmos 2263 Rocket 4.4 04:33:13 12° N 04:33:13 12° N 04:34:01 10° N
BREEZE-M DEB (TANK) 4.0 04:34:15 36° E 04:34:15 36° E 04:36:44 10° E
ADEOS 3.5 04:28:29 10° NNE 04:33:45 83° ESE 04:38:58 10° SSW
FENGYUN 3A 3.5 04:28:48 10° NNE 04:34:14 84° WNW 04:36:29 37° SSW
Meteor 1-27 Rocket 4.3 04:29:07 10° N 04:34:53 58° ENE 04:40:42 10° SSE
Cosmos 1844 3.8 04:37:52 54° NNW 04:37:52 54° NNW 04:42:37 10° NNE
ATLAS 2AS CENTAUR R/B 3.5 04:39:47 38° NW 04:40:26 38° NNW 04:47:34 10° NE
Meteor 1-10 Rocket 4.0 04:41:21 42° NNW 04:43:21 79° W 04:49:01 10° S
SKYMED 2 3.6 04:43:22 10° SSE 04:47:42 78° ENE 04:48:45 51° N
METEOR-M 4.0 04:43:43 10° NNE 04:49:05 79° WNW 04:54:26 10° SSW
Cosmos 1707 Rocket 4.4 04:47:28 16° N 04:50:44 49° ENE 04:54:56 10° SSE
SJ-12 4.1 04:46:45 10° NNE 04:50:49 71° ESE 04:54:51 10° S
CZ-2C R/B 3.6 04:50:55 10° S 04:50:55 10° S 04:51:34 10° SSE
Cosmos 372 Rocket 3.8 04:49:27 43° SW 04:51:10 77° WNW 04:56:18 10° NNE
COSMOS 2455 2.7 04:49:17 41° SW 04:51:26 72° NW 04:57:29 10° NNE
Cosmos 2150 Rocket 4.4 04:46:32 10° S 04:51:45 62° ESE 04:56:54 10° NNE
Cosmos 2154 Rocket 3.9 04:48:41 10° S 04:54:56 85° W 05:01:17 10° N
Cosmos 2298 Rocket 4.2 04:50:00 10° SSW 04:55:15 72° ESE 05:00:33 10° NNE
PSLV R/B 4.1 04:53:50 10° SSE 04:57:55 71° ENE 04:59:50 30° N
ALOS 3.7 04:54:54 10° N 04:56:56 24° N 04:56:56 24° N
Sich 1 3.2 04:56:00 10° S 05:00:25 73° E 05:04:51 10° NNE
Cosmos 1833 Rocket 2.8 04:57:52 25° NNW 05:01:17 75° ENE 05:06:53 10° SSE
Cosmos 1295 Rocket 4.4 04:55:33 10° S 05:01:37 90° E 05:07:47 10° N
ERS-2 4.2 04:58:11 10° S 04:59:08 17° SSW 04:59:08 17° SSW
Cosmos 2327 Rocket 4.3 04:57:46 10° SSW 05:03:50 71° W 05:09:57 10° N
Cosmos 2074 Rocket 4.1 05:00:35 10° SSW 05:06:30 46° WNW 05:12:30 10° N
Cosmos 2082 Rocket 3.0 05:01:52 15° NNW 05:06:31 50° ENE 05:12:03 10° SE
SL-4 R/B 1.7 05:06:43 70° WSW 05:06:57 73° SSW 05:10:38 10° SE
EXPRESS MD2 3.6 05:07:42 51° WSW 05:08:21 59° SSW 05:14:40 10° SE
USA 290 3.9 05:07:38 21° NNE 05:09:06 31° ENE 05:12:00 10° SE
Cosmos 2228 Rocket 3.9 05:11:09 32° SW 05:11:09 32° SW 05:13:59 10° SSW
Cosmos 1437 Rocket 3.5 05:12:49 34° SW 05:12:49 34° SW 05:15:17 10° S
Lacrosse 5 3.1 05:12:41 25° NNW 05:13:40 27° N 05:17:59 10° NE
EO 1 Delta rocket 3.7 05:12:53 10° S 05:17:35 77° W 05:22:18 10° NNW
Cosmos 2341 Rocket 4.0 05:15:25 10° S 05:21:37 85° E 05:27:54 10° N
ERBS 4.1 05:21:36 20° N 05:22:16 21° NNE 05:24:53 10° ENE
ATLAS 3B R/B 4.3 05:23:49 16° WSW 05:23:49 16° WSW 05:27:00 10° SW
USA 307 3.1 05:22:34 40° W 05:23:48 56° SW 05:28:02 10° SE
Meteor 2-12 Rocket 4.4 05:18:12 10° S 05:24:22 84° W 05:30:34 10° N
Meteor PRIRODA 3.5 05:22:37 10° N 05:26:21 66° WNW 05:30:02 10° SSW
CZ-4B R/B 3.0 05:24:06 10° N 05:28:29 61° WNW 05:32:41 10° SSW
USA 308 3.2 05:28:59 34° W 05:30:28 50° SW 05:34:37 10° SE
CZ-4C R/B 3.5 05:32:20 21° NW 05:33:58 24° NNW 05:39:08 10° NNE
Cosmos 2278 Rocket 2.1 05:28:57 10° SSW 05:34:37 83° WNW 05:40:20 10° NNE
SAR-Lupe-4 4.5 05:31:47 10° SSW 05:34:40 29° WSW 05:34:40 29° WSW
COSMO-SKYMED 1 3.2 05:31:56 10° SSW 05:35:52 34° W 05:37:21 27° WNW
FALCON 9 DEB 4.2 05:35:47 26° NNW 05:36:36 30° N 05:39:30 10° ENE
Okean O Rocket 3.6 05:34:00 10° NNE 05:38:02 32° E 05:42:02 10° SSE
Cosmos 1862 Rocket 3.6 05:33:40 10° N 05:38:08 80° E 05:42:31 10° SSE
Envisat 3.3 05:33:55 10° NNE 05:39:00 69° ESE 05:44:04 10° S
Cosmos 1805 Rocket 4.2 05:36:27 10° SW 05:40:31 34° WNW 05:44:37 10° N
deb Chang Zheng 4 4.3 05:37:31 10° N 05:41:22 31° WNW 05:45:12 10° SW
NOAA 6 4.4 05:37:21 10° NNE 05:42:28 66° ESE 05:47:33 10° S
Cosmos 494 Rocket 4.0 05:39:47 15° NNW 05:44:02 59° WSW 05:49:02 10° S
YAOGAN 6 2.6 05:40:46 10° NNE 05:44:17 75° ESE 05:47:45 10° S
Cosmos 1844 Rocket 4.0 05:44:24 19° NW 05:45:10 20° NW 05:49:17 10° N
Cosmos 1515 4.4 05:41:25 10° N 05:45:11 55° ENE 05:48:54 10° SSE
SMAP 4.2 05:42:59 10° NNE 05:47:31 48° E 05:52:00 10° S
COSMOS 2406 3.7 05:44:31 18° NW 05:48:27 41° WSW 05:53:49 10° S
Cosmos 1666 Rocket 3.6 05:44:24 10° SSW 05:48:38 56° WNW 05:52:57 10° N
BREEZE-M (TANK) 3.5 05:45:21 10° SW 05:52:28 49° SSE 05:55:03 10° E
Cosmos 1689 Rocket 3.8 05:50:25 10° SW 05:51:47 17° WSW 05:51:47 17° WSW
USA 305 3.9 05:53:05 20° W 05:55:21 33° SW 05:59:12 10° SSE
Cosmos 1242 Rocket 2.7 05:55:37 10° NNW 05:59:12 54° W 06:02:47 10° S
H-2A R/B 2.2 05:56:11 10° NNE 06:00:03 89° SE 06:03:54 10° SSW
Cosmos 1271 Rocket 4.0 05:56:43 10° N 06:00:23 41° ENE 06:04:06 10° SSE
ATLAS 5 CENTAUR R/B 2.3 05:58:53 16° W 06:01:44 33° NW 06:05:59 10° NNE
USA 306 4.1 06:01:36 16° W 06:04:09 28° SW 06:07:50 10° SSE
MOS 1 Rocket 3.8 05:59:34 10° S 06:04:23 45° W 06:09:29 10° NNW
CZ-2C R/B 2.8 06:00:33 10° SSE 06:05:57 78° ENE 06:11:16 10° N
Cosmos 2366 rocket 4.0 06:01:25 10° SSW 06:07:41 72° W 06:13:57 10° N
Cosmos 1633 Rocket 3.4 06:04:27 10° SSW 06:08:39 42° WNW 06:12:52 10° N
USA 229 DEB 4.1 06:01:34 10° NW 06:08:53 76° NE 06:16:35 10° SE
USA 229 4.1 06:01:41 10° NW 06:08:59 76° NE 06:16:40 10° SE
USA 81 4.3 06:05:34 10° SSW 06:10:34 44° WNW 06:15:38 10° N
NOAA 12 4.4 06:05:19 10° NNE 06:10:35 73° ESE 06:15:49 10° S
Okean 1-7 3.7 06:06:28 10° N 06:10:42 57° ENE 06:14:54 10° SSE
FALCON 9 DEB 3.8 06:10:17 15° NW 06:12:39 39° NNE 06:15:42 10° E
Cosmos 2218 Rocket 4.0 06:07:17 10° SSW 06:13:27 63° WNW 06:19:35 10° N
H-2A R/B 3.5 06:10:39 10° N 06:14:05 30° WNW 06:17:29 10° SW
Cosmos 1125 Rocket 3.9 06:09:24 10° SW 06:14:18 40° WNW 06:19:13 10° N
Meteor 1-20 Rocket 4.4 06:10:12 10° SSW 06:15:49 56° WNW 06:21:34 10° N
GENESIS II 4.2 06:12:50 10° SW 06:16:52 77° NW 06:20:55 10° NE
NOSS 3-1 (C) 4.1 06:10:20 10° NW 06:17:50 82° SW 06:26:33 10° SSE
FALCON 9 DEB 3.8 06:15:49 13° NW 06:18:25 40° NNE 06:21:29 10° E
Cosmos 1269 Rocket 4.2 06:14:56 10° NNW 06:20:07 58° WSW 06:25:16 10° S
PSLV R/B 4.4 06:18:44 10° N 06:22:09 32° WNW 06:25:30 10° SW
Iridium 2 3.9 06:18:27 10° N 06:22:13 73° E 06:25:57 10° S
NOSS 3-1 (A) 4.3 06:15:41 10° NW 06:23:08 78° NE 06:31:48 10° SE
NOSS 2-1 (E) 2.8 06:25:34 10° SW 06:28:54 78° NW 06:32:29 10° NE
AQUARIUS 4.1 06:28:34 10° N 06:33:04 69° WNW 06:37:30 10° SSW
ATLAS 2AS CENTAUR R/B 4.2 06:27:43 10° NW 06:33:43 23° N 06:39:28 10° NE
CZ-4B DEB 4.5 06:30:06 10° N 06:35:19 47° WNW 06:40:32 10° SW
Cosmos 2242 Rocket 3.6 06:31:11 10° NNW 06:35:32 60° W 06:39:51 10° S
COSMOS 2455 4.1 06:34:02 10° W 06:38:27 21° NNW 06:42:54 10° NNE
